Hourly Data Report for November 21, 2004

SHERBROOKE A
QUEBEC

45°26'00.000" N
71°41'00.000" W
241.40 m
7028124
71610
YSC

Download Data

Hourly Data (November 2004)
Hourly Data Report for November 21, 2004
TIME
LST
Temp Definition
°C
Dew Point Definition
°C
Rel Hum Definition
%
Precip. Amount Definition
mm

Wind Dir Definition
10's deg

Wind Spd Definition
km/h
Visibility Definition
km
Stn Press Definition
kPa
Hmdx Definition


Wind Chill Definition


Weather Definition


00:00 1.1 -3.3 72   9 4 15.0 99.25      
01:00 0.4 -1.1 90     0 9.7 99.22     Heavy Rain
02:00 1.1 -0.7 88   14 7 15.0 99.27      
03:00 0.6 -0.5 92   10 6 8.0 99.26     Moderate Rain
04:00 0.6 -0.4 93   10 9 5.6 99.22      
05:00 1.0 0.0 93   9 7 15.0 99.18      
06:00 1.1 0.1 93   9 7 15.0 99.19      
07:00 1.4 0.4 93   11 4 15.0 99.19      
08:00 1.7 0.9 94   12 7 24.1 99.20     Cloudy
09:00 2.8 1.8 93   14 6 24.1 99.18     Cloudy
10:00 3.4 2.4 93   12 7 24.1 99.16     Cloudy
11:00 4.4 3.3 93   17 6 19.3 99.12     Cloudy
12:00 4.6 3.5 93   17 7 16.1 99.05     Rain
13:00 5.0 3.9 93   18 4 16.1 99.01     Cloudy
14:00 5.2 4.5 95     0 16.1 99.01     Cloudy
15:00 5.2 4.5 95   23 4 19.3 99.03     Cloudy
16:00 5.4 4.7 95   23 7 19.3 99.06     Cloudy
17:00 5.3 4.7 96   24 9 12.9 99.11     Cloudy
18:00 5.3 5.0 98   28 19 4.8 99.16      
19:00 4.5 3.8 95   29 19 9.7 99.22      
20:00 3.9 3.1 95   21 4 12.9 99.22      
21:00 3.8 2.9 94   23 6 11.3 99.22      
22:00 3.2 2.4 94   22 4 8.0 99.18      
23:00 3.0 2.4 96   23 4 6.4 99.15      

Notes on Data Quality.

Legend

  • E = Estimated
  • M = Missing
  • NA = Not Available*
  • [empty] = Indicates an unobserved value
Date modified: